Temperature
15 15 15 15 15 14 13 12 11 12 12 12 12 12 13 13 13 13 13 13 13 13 13 13 12 12 12 11 11 11 12 12 12 12 12 12 12 12 13 13 13 13 13 13
15 15 15 15 15 14 14 13 12 13 13 13 13 13 14 14 13 13 13 13 13 13 13 13 12 12 12 12 11 11 11 11 11 11 12 12 12 12 12 13 13 13 13 13
14 14 15 15 15 14 14 14 13 13 13 13 13 13 14 14 13 13 13 13 13 13 13 13 12 12 12 12 11 11 11 11 11 11 11 11 11 12 12 12 12 12 13 13
12 15 16 15 15 14 14 14 13 13 13 13 14 14 14 14 14 13 13 13 13 13 13 13 13 12 12 12 12 12 11 11 11 11 11 11 11 11 11 12 12 12 12 13
11 13 14 15 15 14 14 14 13 13 13 14 14 13 14 14 14 13 13 13 13 13 13 13 13 12 12 12 12 12 11 11 11 11 11 11 11 11 11 11 12 12 12 12
11 15 15 16 15 16 15 14 14 14 14 13 13 11 12 14 14 14 13 13 13 13 13 13 13 13 12 12 12 12 11 11 11 11 11 11 11 11 11 11 11 11 11 12
12 13 13 14 15 15 14 14 15 15 15 14 14 13 15 14 14 14 14 14 14 13 13 13 13 13 13 12 12 12 11 11 11 11 11 11 11 11 11 11 11 11 11 11
10 13 15 15 14 13 14 16 16 16 16 15 15 15 14 14 14 14 14 14 14 14 13 13 13 13 13 12 12 12 11 11 11 11 11 11 11 11 11 11 11 11 11 11
12 14 15 16 16 17 17 17 16 16 16 15 15 15 14 14 14 14 14 14 14 14 14 13 13 13 13 12 12 12 11 11 11 11 11 11 10 11 11 11 11 10 10 10
11 12 15 16 17 17 17 17 17 16 16 15 15 15 14 14 14 14 14 14 14 14 14 13 13 13 13 12 12 12 11 11 11 11 10 10 10 10 10 10 10 10 10 10
13 13 15 17 17 17 17 17 16 16 15 15 15 15 14 14 14 14 14 14 14 14 14 13 13 13 13 12 12 12 11 11 11 11 10 10 10 10 10 10 10 10 10 10
14 17 16 18 19 18 17 17 16 16 15 15 15 14 14 14 14 14 14 14 14 14 14 13 13 13 13 12 12 12 11 11 11 11 10 10 10 10 10 10 10 10 10 10
20 20 20 19 19 18 17 17 16 16 15 15 14 14 14 14 14 14 14 14 14 14 13 13 13 13 13 12 12 12 11 11 11 11 10 10 10 10 10 10 10 10 9 9
20 20 19 19 18 18 17 16 16 15 15 15 14 14 14 14 14 14 14 14 13 13 13 13 13 13 13 12 12 12 12 11 11 11 11 10 10 10 10 10 10 10 9 9
20 20 19 19 18 17 17 16 15 15 15 14 14 14 14 14 14 14 13 13 13 13 13 13 13 13 13 12 12 12 12 12 11 11 11 11 10 10 10 10 10 10 9 9
20 19 19 18 18 17 16 16 15 15 15 14 14 14 14 14 14 13 13 13 13 13 13 13 13 13 13 12 12 12 12 12 11 11 11 11 10 10 10 10 10 10 10 9
19 19 18 18 18 17 17 16 16 15 15 15 14 14 14 14 13 13 13 13 13 13 13 13 13 13 13 12 12 12 12 12 12 11 11 11 11 10 10 10 10 10 10 9
20 20 20 19 19 18 17 16 16 15 15 15 14 14 14 14 14 13 13 13 13 13 13 13 13 12 13 13 12 12 12 12 12 12 11 11 11 11 10 10 10 10 10 10
20 19 19 19 18 18 17 17 16 16 15 15 14 14 14 14 14 13 13 13 13 13 13 13 12 12 13 13 12 12 12 12 12 12 12 11 11 11 11 10 10 10 10 10
20 19 19 18 18 17 17 17 16 16 15 15 15 14 14 14 14 13 13 13 13 13 13 13 12 12 12 13 13 12 12 12 12 12 12 12 11 11 11 11 10 10 10 10
19 19 18 18 18 17 17 16 16 16 15 15 15 15 15 14 14 14 13 13 13 13 13 13 12 12 12 12 12 12 12 12 12 12 12 12 12 11 11 11 11 11 10 10
19 18 18 18 17 17 17 16 16 16 16 15 15 15 15 14 14 14 14 13 13 13 13 13 12 12 12 12 12 12 12 12 12 12 12 12 12 12 11 11 11 11 11 11
17 17 17 17 17 17 16 16 16 16 16 15 15 15 15 15 14 14 14 14 13 13 13 13 12 12 12 12 12 12 12 12 12 12 12 12 12 12 12 11 11 11 11 11
16 16 16 16 16 16 16 16 16 16 16 15 15 15 15 14 14 14 14 13 13 13 13 13 12 12 12 12 12 12 12 12 12 12 12 12 12 12 12 12 11 11 11 11
14 15 15 15 15 15 15 15 15 15 15 15 15 15 15 14 14 14 14 13 13 13 13 13 12 12 12 12 12 12 12 12 12 12 12 12 12 12 12 12 12 12 11 11
13 13 13 13 14 14 14 14 14 15 15 15 15 14 14 14 14 14 14 13 13 13 13 13 12 12 12 12 12 12 12 12 12 12 12 12 12 12 12 12 12 12 12 11
11 11 11 12 12 12 13 13 13 13 14 14 14 14 14 14 14 14 13 13 13 13 13 13 12 12 12 12 12 12 12 12 12 12 12 12 12 12 12 12 12 12 12 12
Wind_Speed
1 1 2 1 1 3 4 5 5 5 5 6 5 4 4 5 6 7 8 9 9 8 8 8 8 8 8 9 9 9 9 10 10 10 9 9 9 9 9 9 9 8 7 6
3 2 1 1 3 2 3 4 4 3 5 5 3 2 3 5 6 6 7 8 8 8 8 8 8 8 8 8 8 8 9 9 9 10 10 10 9 9 9 9 9 9 9 7
1 3 3 5 5 5 4 4 6 6 6 2 2 3 3 4 5 6 7 7 8 7 7 7 7 6 7 7 7 7 8 8 9 9 9 9 9 9 9 9 8 9 9 8
2 2 3 7 3 5 5 4 6 5 4 5 5 3 2 3 4 6 6 6 7 7 7 6 6 6 6 6 7 7 8 8 9 9 9 9 9 9 9 7 7 8 8 9
3 1 6 6 3 6 5 4 6 6 4 3 3 2 4 3 3 3 4 5 5 5 5 5 6 6 6 6 6 7 7 8 8 8 8 9 9 9 7 7 8 8 7 9
4 2 5 6 3 4 4 4 5 8 7 6 6 1 4 4 2 3 4 4 5 5 4 5 6 5 5 6 6 6 6 6 6 7 8 8 8 7 6 6 7 7 8 9
4 4 8 7 4 6 3 6 5 9 8 8 8 6 4 3 1 2 3 4 5 5 4 5 5 4 5 6 6 5 4 5 7 7 7 7 7 7 7 7 7 8 8 8
5 3 7 6 9 8 9 3 6 8 8 8 7 4 3 2 1 3 4 5 5 5 5 5 4 4 5 5 4 3 4 6 7 7 7 7 7 7 7 7 8 8 8 8
8 7 5 7 8 6 6 6 7 8 7 8 7 5 4 2 1 3 4 4 4 4 5 5 5 4 4 5 3 3 5 6 5 6 7 7 7 7 7 7 7 7 7 7
5 8 7 8 5 5 7 7 7 8 8 8 7 6 5 2 1 2 3 3 4 4 5 5 5 4 3 3 2 3 4 4 4 5 6 6 6 6 6 6 6 6 6 6
6 7 4 6 9 8 7 6 7 7 7 8 8 6 5 3 2 1 2 2 3 3 4 5 5 4 4 3 2 2 3 3 4 4 4 5 5 4 4 4 4 4 4 4
8 8 8 7 8 10 10 9 10 9 7 6 7 7 6 4 3 2 1 2 3 4 4 5 5 4 4 2 1 2 1 1 2 2 2 2 3 4 6 5 8 9 8 5
6 5 7 3 6 10 11 11 10 10 10 7 6 6 6 4 3 2 1 2 3 4 4 4 4 4 4 2 1 1 1 0 0 1 1 1 2 2 3 5 7 10 11 10
5 6 4 5 7 10 10 10 9 8 7 7 6 5 4 4 2 2 3 3 3 4 4 3 3 4 4 2 1 0 1 1 1 1 1 0 0 1 1 2 3 4 7 10
9 7 6 6 7 8 8 8 8 7 7 6 5 5 6 5 5 4 3 3 2 3 3 3 3 4 4 2 0 0 1 1 1 1 1 1 1 1 1 2 2 2 3 5
8 6 6 7 9 10 9 10 10 10 8 8 7 7 7 6 5 4 3 2 2 3 4 3 4 4 3 2 1 0 1 2 2 1 1 1 1 1 1 1 1 2 2 2
11 9 9 8 10 10 11 11 11 11 9 9 9 8 6 5 4 4 4 3 3 4 4 4 4 4 3 2 1 2 1 2 1 2 2 2 2 2 2 2 1 0 1 1
12 12 11 11 12 12 12 11 10 10 10 10 9 7 7 7 7 7 5 3 2 3 5 5 4 4 4 3 2 2 2 2 2 2 2 2 2 3 3 3 3 2 1 1
10 10 10 10 11 12 12 11 10 10 9 8 9 9 9 9 8 6 4 3 4 5 6 5 4 3 4 4 3 2 2 2 2 2 3 3 3 3 3 3 3 3 3 2
10 9 10 9 9 9 10 10 10 9 9 9 9 8 8 8 7 6 5 5 6 7 5 4 3 3 4 4 3 2 3 3 3 3 3 3 4 4 4 4 4 4 4 4
9 9 9 9 9 9 9 10 10 10 9 9 10 10 10 9 7 6 5 6 7 7 6 7 4 4 4 4 3 3 3 3 4 4 4 4 4 5 5 5 5 5 5 5
6 7 8 8 8 8 7 8 9 9 9 9 10 9 8 7 7 7 7 7 7 6 5 4 5 6 6 4 3 3 4 4 4 4 4 5 5 5 5 5 6 6 6 6
4 4 5 6 7 6 5 6 8 8 9 10 10 10 10 9 7 6 7 7 6 8 6 6 7 8 8 4 4 4 4 5 5 5 5 5 5 6 6 6 6 6 6 6
4 3 3 3 5 5 4 4 5 6 7 7 8 9 8 7 6 7 7 5 6 8 6 8 11 10 8 4 4 5 5 5 5 5 5 5 5 5 6 6 6 6 6 7
5 5 5 6 4 2 2 1 3 3 4 4 5 6 6 6 7 6 6 7 9 8 6 8 11 10 6 5 5 5 5 6 6 5 5 5 5 6 6 6 6 6 6 6
5 4 4 3 2 1 1 2 1 1 2 2 3 4 5 5 6 5 4 6 8 8 7 6 6 6 5 6 6 6 6 6 6 6 6 6 6 6 6 6 8 7 7 7
5 4 4 4 3 2 2 2 1 0 1 2 3 3 3 4 4 5 6 5 5 6 6 6 6 6 6 6 6 6 6 6 6 6 6 6 6 6 7 8 7 6 6 6
Wind_Direction
137 154 147 181 204 168 169 182 186 229 237 262 264 267 292 311 324 334 337 339 341 338 336 338 343 346 351 350 353 356 1 6 5 2 6 12 16 17 23 29 32 32 36 35
33 28 105 290 259 208 191 182 200 230 260 252 237 236 296 316 328 331 331 333 335 339 341 341 341 340 346 349 350 356 4 5 3 5 10 13 14 19 26 28 29 34 33 31
344 346 19 291 238 198 204 198 181 209 238 205 201 237 268 298 317 320 324 327 330 330 329 329 331 336 343 342 347 1 6 5 5 6 11 12 18 25 25 24 28 32 29 29
109 68 268 250 236 186 193 219 205 215 222 196 204 221 261 263 290 310 321 326 325 324 324 326 332 344 346 352 357 3 6 4 4 5 10 13 22 24 22 24 27 28 27 24
115 191 283 288 204 169 176 251 207 197 193 171 138 45 322 275 271 285 304 310 306 309 309 322 338 344 354 359 1 7 5 3 3 8 16 19 21 18 19 27 31 30 28 27
125 171 247 252 205 152 112 276 222 180 177 163 128 111 271 276 291 312 327 322 322 327 336 346 343 350 7 1 6 4 358 359 6 15 24 23 20 19 20 30 32 34 35 29
157 223 261 243 159 122 144 249 202 175 173 166 178 201 231 272 295 333 335 335 345 351 351 338 337 1 13 7 1 351 3 18 24 21 27 28 27 24 21 25 32 34 34 30
155 202 263 192 145 177 212 198 166 170 171 176 195 206 216 227 309 350 352 351 356 354 343 339 352 11 10 360 344 10 31 35 32 27 30 32 33 29 25 25 32 28 27 27
189 213 240 193 196 202 167 168 176 171 175 169 173 186 187 198 300 340 349 348 349 348 342 346 356 9 4 340 353 51 47 40 34 35 35 33 35 32 29 27 32 29 27 26
241 261 243 223 219 188 181 180 176 169 164 163 169 178 180 189 263 331 338 343 348 357 357 345 342 351 345 341 39 77 58 43 37 41 35 31 32 33 34 27 26 27 26 21
249 267 264 236 208 191 177 161 152 154 165 170 167 175 181 191 225 279 316 328 348 351 335 326 332 342 350 11 74 77 61 51 45 45 44 34 32 28 27 20 17 20 14 10
219 214 190 224 203 172 163 170 168 160 162 170 173 179 178 192 215 238 284 321 337 338 330 324 331 336 346 10 81 105 70 44 41 42 43 39 32 25 26 32 33 39 40 42
202 187 181 224 172 170 174 175 171 169 169 172 181 179 176 190 208 220 256 300 311 312 313 317 329 337 342 350 75 136 180 192 102 69 55 41 38 40 21 11 29 37 36 44
177 137 158 184 182 180 175 171 166 168 173 173 172 172 172 181 198 221 249 267 282 298 309 318 329 332 336 346 41 148 171 185 165 178 161 127 77 62 53 41 19 3 16 37
192 189 186 175 158 161 158 150 155 172 178 180 176 176 180 190 211 231 249 269 285 300 309 318 321 319 330 348 7 195 179 205 196 194 179 160 130 104 81 63 47 18 12 21
173 163 149 154 165 166 161 168 175 187 187 188 190 198 200 201 212 235 252 244 246 278 287 294 294 300 318 327 306 257 248 244 203 176 149 136 133 135 129 106 46 24 18 2
154 174 182 184 184 184 184 184 186 189 187 192 202 202 192 190 214 242 250 245 241 256 261 261 269 295 311 297 250 247 254 267 220 167 173 169 171 183 183 173 185 274 318 332
191 188 182 181 184 188 192 190 188 186 191 201 195 182 185 195 212 229 238 246 262 279 269 252 256 285 298 291 255 238 234 236 221 209 200 191 191 193 189 194 206 216 246 322
196 189 188 187 184 183 186 189 192 195 195 185 181 192 202 209 215 221 213 211 234 258 267 259 263 277 285 281 262 230 232 235 234 225 212 209 201 197 197 203 213 217 213 210
191 188 186 187 182 180 187 189 186 190 191 183 185 194 207 217 213 207 200 221 231 228 241 249 254 267 273 276 256 228 234 238 238 233 219 213 213 216 212 212 216 217 216 217
182 179 179 182 185 189 190 184 181 191 192 182 186 198 209 215 202 190 194 237 254 235 233 241 237 247 255 257 252 235 240 242 240 233 225 222 222 223 222 220 220 219 218 219
167 172 178 178 179 189 192 183 186 191 187 189 198 200 201 208 202 202 217 225 244 233 217 226 230 239 244 249 233 239 246 245 243 237 231 226 223 225 226 225 225 226 222 218
136 154 163 173 181 185 175 180 189 189 191 195 197 198 202 206 193 192 233 236 227 234 221 224 229 239 251 241 230 238 245 247 244 239 235 231 227 226 228 230 228 226 224 220
87 97 122 136 134 136 163 197 196 197 201 204 205 203 198 202 215 220 223 237 216 220 220 230 235 242 248 229 231 238 244 247 247 244 241 237 233 230 229 230 231 229 226 224
71 74 77 89 102 126 190 185 166 184 196 212 224 216 206 200 210 223 213 222 229 229 230 239 241 243 235 224 229 236 241 244 245 242 238 238 236 234 233 230 230 231 228 225
55 62 70 87 100 89 81 102 131 174 186 224 247 234 221 217 220 223 218 223 228 225 223 228 229 232 223 224 230 235 240 250 257 250 241 240 240 238 236 234 234 230 229 228
45 47 49 47 38 40 59 81 92 252 224 225 252 257 236 225 220 221 222 223 223 223 224 225 220 218 220 225 231 236 238 240 242 244 244 242 241 240 239 238 235 232 227 225
Height
1571 1569 1570 1571 1572 1574 1577 1581 1585 1581 1579 1574 1572 1571 1570 1569 1567 1565 1562 1560 1557 1553 1550 1546 1542 1538 1534 1530 1526 1522 1517 1514 1510 1507 1504 1501 1499 1497 1496 1495 1494 1493 1493 1493
1572 1570 1570 1571 1570 1571 1573 1575 1577 1576 1576 1570 1570 1570 1569 1568 1567 1565 1563 1560 1558 1555 1551 1548 1544 1541 1537 1533 1529 1525 1521 1517 1514 1511 1508 1505 1503 1501 1499 1498 1497 1496 1496 1496
1580 1574 1573 1576 1568 1569 1570 1570 1572 1575 1572 1568 1569 1569 1569 1568 1567 1565 1563 1561 1558 1556 1553 1550 1546 1543 1540 1536 1532 1528 1524 1521 1517 1514 1511 1508 1506 1504 1502 1501 1500 1499 1498 1498
1582 1578 1580 1572 1562 1563 1565 1566 1566 1566 1566 1566 1567 1568 1568 1568 1567 1565 1564 1561 1559 1557 1554 1551 1548 1545 1542 1539 1535 1531 1528 1524 1520 1517 1514 1512 1509 1507 1506 1504 1503 1502 1501 1500
1586 1583 1578 1565 1560 1561 1564 1564 1562 1563 1564 1565 1567 1568 1568 1567 1566 1565 1564 1562 1560 1557 1555 1552 1550 1547 1544 1541 1537 1534 1530 1527 1523 1520 1518 1515 1513 1511 1509 1507 1506 1504 1503 1503
1584 1579 1577 1564 1556 1557 1562 1565 1558 1559 1562 1564 1566 1570 1569 1567 1566 1565 1564 1562 1560 1558 1556 1553 1551 1548 1546 1542 1539 1536 1533 1530 1527 1524 1521 1519 1516 1514 1512 1510 1509 1508 1507 1506
1581 1579 1571 1556 1554 1558 1570 1564 1554 1556 1559 1562 1564 1566 1566 1566 1566 1565 1563 1562 1560 1558 1556 1554 1552 1550 1547 1544 1541 1539 1536 1533 1530 1527 1524 1522 1520 1517 1516 1514 1512 1511 1510 1509
1580 1577 1569 1550 1553 1557 1555 1551 1552 1554 1557 1560 1562 1563 1564 1565 1565 1564 1563 1562 1561 1559 1557 1555 1553 1551 1548 1546 1544 1541 1539 1536 1533 1530 1528 1526 1523 1521 1519 1517 1516 1514 1513 1512
1562 1558 1547 1545 1545 1547 1548 1549 1551 1553 1556 1559 1561 1562 1564 1564 1564 1564 1563 1562 1561 1559 1558 1556 1554 1552 1549 1548 1545 1543 1541 1538 1536 1534 1531 1529 1527 1525 1523 1521 1519 1518 1517 1515
1553 1545 1541 1542 1543 1545 1546 1548 1550 1553 1555 1557 1559 1561 1563 1563 1564 1564 1563 1562 1561 1559 1558 1556 1554 1552 1551 1549 1547 1545 1543 1541 1539 1537 1534 1532 1530 1529 1527 1525 1523 1522 1520 1519
1546 1540 1538 1538 1539 1542 1544 1547 1549 1552 1554 1556 1558 1560 1561 1562 1563 1563 1562 1562 1561 1559 1558 1557 1555 1553 1551 1549 1548 1546 1545 1543 1541 1539 1537 1536 1534 1532 1530 1528 1527 1525 1524 1523
1539 1532 1533 1533 1535 1539 1542 1544 1547 1550 1552 1555 1557 1558 1560 1561 1562 1562 1562 1561 1560 1559 1558 1557 1555 1553 1552 1550 1549 1547 1546 1544 1543 1541 1540 1538 1537 1535 1533 1532 1530 1529 1527 1526
1528 1529 1530 1531 1533 1536 1539 1542 1545 1548 1550 1553 1555 1557 1558 1559 1560 1560 1560 1560 1559 1558 1557 1556 1555 1553 1552 1550 1549 1548 1547 1546 1544 1543 1542 1541 1539 1538 1536 1535 1533 1532 1530 1529
1525 1527 1528 1529 1531 1534 1537 1540 1544 1546 1549 1551 1553 1555 1556 1557 1558 1559 1559 1559 1558 1557 1557 1556 1554 1553 1552 1550 1549 1548 1547 1546 1546 1544 1543 1542 1541 1540 1538 1537 1536 1534 1533 1532
1522 1525 1526 1527 1529 1531 1535 1538 1541 1544 1546 1549 1551 1553 1554 1555 1556 1557 1557 1557 1557 1556 1555 1554 1553 1552 1551 1550 1549 1548 1547 1547 1546 1545 1544 1543 1542 1541 1540 1539 1538 1536 1535 1534
1519 1521 1523 1524 1526 1528 1531 1534 1537 1540 1543 1546 1548 1550 1552 1553 1554 1555 1555 1555 1555 1554 1554 1553 1552 1551 1550 1549 1548 1547 1547 1547 1546 1546 1545 1544 1543 1542 1541 1540 1539 1538 1537 1536
1514 1516 1519 1521 1522 1525 1527 1530 1534 1537 1540 1543 1545 1547 1549 1550 1551 1552 1552 1553 1552 1552 1552 1551 1550 1550 1549 1548 1547 1546 1546 1546 1546 1545 1545 1544 1544 1543 1542 1541 1541 1540 1539 1538
1510 1513 1515 1516 1518 1521 1524 1527 1531 1534 1537 1540 1542 1544 1546 1547 1548 1549 1550 1550 1550 1550 1550 1549 1548 1548 1547 1546 1545 1545 1545 1545 1545 1544 1544 1544 1544 1543 1543 1542 1541 1541 1540 1539
1505 1508 1511 1513 1515 1518 1521 1524 1527 1530 1534 1536 1539 1540 1542 1544 1545 1546 1546 1547 1547 1547 1547 1547 1546 1545 1544 1544 1543 1543 1543 1543 1543 1543 1543 1543 1543 1543 1542 1542 1541 1541 1540 1540
1500 1504 1507 1510 1512 1514 1517 1520 1524 1527 1530 1533 1535 1537 1538 1540 1541 1542 1543 1543 1543 1544 1544 1544 1543 1543 1542 1541 1541 1541 1541 1541 1541 1541 1541 1541 1541 1541 1541 1541 1541 1540 1540 1539
1496 1499 1502 1505 1508 1511 1514 1517 1520 1523 1526 1528 1530 1532 1534 1536 1537 1538 1539 1539 1540 1541 1541 1541 1540 1540 1539 1539 1538 1538 1538 1538 1538 1538 1539 1539 1539 1539 1539 1539 1539 1539 1539 1538
1492 1495 1498 1501 1504 1507 1510 1513 1516 1519 1522 1524 1526 1528 1530 1532 1533 1534 1535 1536 1536 1537 1537 1537 1537 1537 1536 1536 1535 1535 1535 1535 1535 1535 1536 1536 1536 1536 1537 1537 1537 1537 1537 1536
1490 1492 1495 1498 1501 1503 1506 1509 1512 1514 1517 1519 1521 1523 1525 1527 1528 1530 1530 1532 1532 1532 1533 1533 1533 1533 1533 1533 1532 1532 1532 1532 1532 1532 1532 1532 1533 1533 1533 1534 1534 1534 1534 1534
1487 1490 1492 1495 1497 1500 1502 1505 1508 1510 1512 1515 1517 1519 1521 1522 1524 1525 1526 1527 1528 1528 1528 1529 1529 1529 1529 1529 1529 1528 1528 1528 1528 1528 1528 1528 1529 1529 1530 1530 1530 1530 1530 1530
1486 1488 1490 1492 1494 1496 1499 1501 1503 1505 1507 1510 1512 1514 1516 1517 1519 1520 1521 1522 1523 1523 1524 1524 1525 1525 1525 1525 1524 1524 1524 1524 1524 1524 1524 1524 1525 1525 1525 1526 1526 1526 1526 1526
1486 1487 1488 1489 1491 1493 1495 1497 1499 1501 1503 1505 1507 1509 1510 1512 1513 1515 1516 1517 1518 1518 1519 1520 1520 1520 1520 1520 1520 1520 1520 1520 1520 1520 1520 1520 1520 1520 1521 1521 1521 1521 1521 1521
1486 1486 1487 1488 1490 1491 1492 1493 1495 1496 1498 1500 1501 1503 1504 1506 1507 1508 1510 1511 1512 1513 1514 1514 1515 1515 1515 1515 1515 1515 1515 1515 1515 1515 1515 1515 1515 1515 1516 1516 1516 1516 1516 1516